"TOA5","AWS1","CR1000","7964","CR1000.Std.14","CPU:AWS1_114.CR1","64363","TBL110"
"TIMESTAMP","RECORD","Wind_spd_WVc(1)","Wind_spd_WVc(2)","Air_Temp_Avg","Humidity_Avg","SW_upper_Wm2_Avg","Rain_Tot","Press_Avg","Issui_Tot","Depth_cm","SR50A_Raw","Quality","Ground_Temp_Avg(1)","Ground_Temp_Avg(2)","SW_lower_Wm2_Avg","Albedo_Avg","SWC_per(1)","SWC_per(2)","Period(1)","Period(2)"
"TS","RN","","","","","","","","","","","","","","","","","","",""
"","","WVc","WVc","Avg","Avg","Avg","Tot","Avg","Tot","Smp","Smp","Smp","Avg","Avg","Avg","Avg","Smp","Smp","Smp","Smp"
"2017-10-06 00:00:00",308797,0.016,136.3,7.743,94.5,0,0,876.3073,0,0.309,3.132,221,12.95,14.01,0.2350319,0,50.22,57.27,33.35,35.05
"2017-10-06 00:10:00",308798,0.023,138.7,7.849,94.4,0,0,876.3199,0,-0.076,3.137,211,12.89,14.02,0.394247,0,50.17,57.33,33.34,35.06
"2017-10-06 00:20:00",308799,0.06,146.5,7.641,94.9,0,0,876.2727,0,-0.002,3.137,203,12.88,14.02,0.1250976,0,50.17,57.27,33.34,35.05
"2017-10-06 00:30:00",308800,0.088,162,7.527,96,0,0,876.2644,0,0.198,3.136,209,12.88,14.02,0,0,50.22,57.27,33.35,35.05
"2017-10-06 00:40:00",308801,0.038,140.7,7.363,96.5,0,0,876.2557,0,0.146,3.137,204,12.84,14.02,0,0,50.17,57.27,33.34,35.05
"2017-10-06 00:50:00",308802,0.013,157.8,7.308,97.1,0,0,876.0408,0,0.299,3.135,210,12.85,14.02,0.007581673,0,50.17,57.27,33.34,35.05
"2017-10-06 01:00:00",308803,0.071,165.3,7.362,97.5,0,0,876.0879,0,0.348,3.135,210,12.87,14.02,0.08339839,0,50.17,57.33,33.34,35.06
"2017-10-06 01:10:00",308804,0,0,7.312,97.4,0,0,876.0145,0,0.173,3.136,206,12.89,14.02,0.185751,0,50.17,57.27,33.34,35.05
"2017-10-06 01:20:00",308805,0.001,151,7.243,97.3,0,0,876.0079,0,0.652,3.132,216,12.89,14.02,0.1137251,0,50.17,57.27,33.34,35.05
"2017-10-06 01:30:00",308806,0.129,7.047,7.413,97.8,0,0,876.0217,0,0.047,3.137,214,12.89,14.02,0.4965996,0,50.17,57.27,33.34,35.05
"2017-10-06 01:40:00",308807,0.054,207.9,7.335,97.5,0,0,876.0228,0,0.551,3.133,226,12.87,14.02,0.4435278,0,50.22,57.27,33.35,35.05
"2017-10-06 01:50:00",308808,0.052,288,7.537,97.9,0,0,876.0135,0,-0.205,3.139,218,12.83,14.02,0.5686255,0,50.17,57.27,33.34,35.05
"2017-10-06 02:00:00",308809,0,0,7.379,96.4,0,0,875.9404,0,0.195,3.137,218,12.8,14.02,0.1516335,0,50.17,57.27,33.34,35.05
"2017-10-06 02:10:00",308810,0.082,191.1,7.172,97.2,0,0,875.792,0,-0.133,3.14,217,12.73,14.02,0,0,50.17,57.27,33.34,35.05
"2017-10-06 02:20:00",308811,0.16,194,7.194,97.9,0,0,875.7502,0,-0.818,3.147,206,12.72,14.02,0.003790837,0,50.22,57.27,33.35,35.05
"2017-10-06 02:30:00",308812,0.018,144.5,7.046,98,0,0,875.7404,0,-0.212,3.142,212,12.76,13.99,0,0,50.17,57.27,33.34,35.05
"2017-10-06 02:40:00",308813,0,0,7.285,99.2,0.04717889,0,875.7068,0,-0.052,3.138,226,12.76,13.98,0.5155472,0.386,50.17,57.27,33.34,35.05
"2017-10-06 02:50:00",308814,0.017,134,7.531,99.3,0,0,875.5573,0,-0.658,3.143,250,12.76,13.97,0.5117594,0,50.22,57.27,33.35,35.05
"2017-10-06 03:00:00",308815,0.085,120.4,7.285,98.7,0,0,875.4968,0,-0.462,3.143,215,12.76,13.96,0.2312405,0,50.17,57.27,33.34,35.05
"2017-10-06 03:10:00",308816,0.015,88,7.334,99.8,0,0,875.5053,0,-0.207,3.14,225,12.77,13.96,0.4435276,0,50.17,57.27,33.34,35.05
"2017-10-06 03:20:00",308817,0.027,75.66,7.563,100,0,0,875.4984,0,-0.253,3.139,239,12.77,13.96,0.4549003,0,50.17,57.27,33.34,35.05
"2017-10-06 03:30:00",308818,0.019,31.95,7.657,100,0,0,875.4344,0,-0.229,3.139,252,12.78,13.97,0.4549004,0,50.17,57.27,33.34,35.05
"2017-10-06 03:40:00",308819,0.096,96.7,7.603,100,0,0,875.2462,0,-0.609,3.143,214,12.78,13.96,0.3563386,0,50.17,57.27,33.34,35.05
"2017-10-06 03:50:00",308820,0.033,314.5,7.509,100,0,0,875.0081,0,-0.282,3.14,236,12.78,13.97,0.08339839,0,50.17,57.27,33.34,35.05
"2017-10-06 04:00:00",308821,0.261,283.1,7.568,100,0,0,875.1428,0,0.306,3.133,236,12.8,13.95,0.4283645,0,50.17,57.27,33.34,35.05
"2017-10-06 04:10:00",308822,0.208,241.1,7.639,99,0,0,875.3914,0,-0.355,3.14,256,12.8,13.93,0.2881036,0,50.17,57.27,33.34,35.05
"2017-10-06 04:20:00",308823,0.132,46.79,7.533,99.2,0,0,875.5578,0,-0.508,3.142,290,12.8,13.92,0.1554243,0,50.17,57.27,33.34,35.05
"2017-10-06 04:30:00",308824,0.227,210.9,7.374,100,0,0,875.5325,0,0.348,3.135,299,12.8,13.93,0,0,50.17,57.27,33.34,35.05
"2017-10-06 04:40:00",308825,0.061,85.3,7.368,100,0,0,875.6757,0,-0.228,3.139,268,12.78,13.93,0.1895418,0,50.17,57.27,33.34,35.05
"2017-10-06 04:50:00",308826,0.208,79.52,7.582,100,0,0,875.6694,0,-0.253,3.139,298,12.72,13.93,0.4359462,0,50.17,57.27,33.34,35.05
"2017-10-06 05:00:00",308827,0.32,173.7,7.351,99.6,0,0,875.4946,0,-0.944,3.148,214,12.71,13.93,0,0,50.17,57.27,33.34,35.05
"2017-10-06 05:10:00",308828,0.247,200.6,7.313,99.9,0,0,875.4988,0,-0.309,3.141,259,12.69,13.93,0.003790837,0,50.17,57.27,33.34,35.05
"2017-10-06 05:20:00",308829,0.178,194.4,7.352,98.4,0,0,875.7137,0,-0.536,3.143,228,12.68,13.93,0,0,50.11,57.27,33.33,35.05
"2017-10-06 05:30:00",308830,0.203,169.6,7.229,98.3,0,0,875.7423,0,-0.389,3.143,238,12.68,13.93,0,0,50.11,57.27,33.33,35.05
"2017-10-06 05:40:00",308831,0.177,171.9,7.118,98.9,0,0,875.6978,0,-0.339,3.143,252,12.68,13.92,0,0,50.17,57.27,33.34,35.05
"2017-10-06 05:50:00",308832,0.063,174.7,7.151,98.4,0,0,875.6891,0,0.624,3.133,323,12.69,13.88,0.2956852,0,50.17,57.27,33.34,35.05
"2017-10-06 06:00:00",308833,0.095,112.8,7.435,92.4,0.3813678,0,875.6927,0,-0.201,3.138,242,12.69,13.87,0.8946373,0.929,50.11,57.27,33.33,35.05
"2017-10-06 06:10:00",308834,0.366,25.69,8.06,85.6,2.720685,0,875.7958,0,-0.008,3.132,222,12.71,13.86,1.713458,0.677,50.17,57.27,33.34,35.05
"2017-10-06 06:20:00",308835,0.15,350.6,8.36,83.3,7.737442,0,875.9685,0,-0.11,3.133,206,12.71,13.84,2.126659,0.288,50.17,57.22,33.34,35.03
"2017-10-06 06:30:00",308836,0.008,51.94,8.31,84.5,21.28189,0,875.899,0,-0.166,3.135,214,12.71,13.85,3.703647,0.176,50.17,57.22,33.34,35.03
"2017-10-06 06:40:00",308837,0.066,171,7.941,87.8,28.64976,0,875.5789,0,0.107,3.134,214,12.72,13.82,4.268481,0.149,50.17,57.22,33.34,35.03
"2017-10-06 06:50:00",308838,0.234,230.1,7.953,87.6,37.51165,0,875.5536,0,0.117,3.131,207,12.72,13.8,5.504294,0.146,50.17,57.27,33.34,35.05
"2017-10-06 07:00:00",308839,0.067,321,8.5,84.8,52.5973,0,875.7431,0,-0.436,3.135,213,12.71,13.82,8.078273,0.153,50.11,57.27,33.33,35.05
"2017-10-06 07:10:00",308840,0.098,205.3,8.51,88.1,86.66879,0,875.7537,0,-0.184,3.133,211,12.68,13.84,12.61211,0.145,50.17,57.22,33.34,35.03
"2017-10-06 07:20:00",308841,0.077,31.63,8.65,88.5,77.98775,0,875.9158,0,0.129,3.128,211,12.67,13.84,10.93277,0.14,50.17,57.22,33.34,35.03
"2017-10-06 07:30:00",308842,0.142,92.5,8.9,87,67.49795,0,876.3245,0,0.054,3.129,210,12.67,13.84,9.082814,0.135,50.17,57.27,33.34,35.05
"2017-10-06 07:40:00",308843,0.032,158.6,8.83,87.8,69.47076,0,876.3539,0,-0.163,3.132,213,12.65,13.83,9.063235,0.13,50.17,57.22,33.34,35.03
"2017-10-06 07:50:00",308844,0.18,211.8,8.78,87.5,91.40282,0,876.3687,0,0.517,3.125,217,12.61,13.79,12.51902,0.137,50.17,57.27,33.34,35.05
"2017-10-06 08:00:00",308845,0.107,157.5,9.11,85.4,120.6965,0,876.295,0,0.54,3.122,285,12.56,13.77,16.91781,0.14,50.17,57.27,33.34,35.05
"2017-10-06 08:10:00",308846,0.107,139.3,9.53,81.3,146.1949,0,876.5013,0,0.678,3.119,221,12.56,13.76,20.57779,0.141,50.17,57.22,33.34,35.03
"2017-10-06 08:20:00",308847,0.341,124.3,9.71,80.8,138.933,0,876.5119,0,-0.618,3.132,204,12.58,13.75,19.00095,0.137,50.11,57.27,33.33,35.05
"2017-10-06 08:30:00",308848,0.279,95.4,9.65,79.6,128.1905,0,876.5056,0,0.205,3.122,206,12.58,13.74,17.75406,0.138,50.11,57.22,33.33,35.03
"2017-10-06 08:40:00",308849,0.206,84.7,9.88,78.68,106.0195,0,876.4908,0,-0.381,3.128,205,12.59,13.74,14.26764,0.134,50.17,57.22,33.34,35.03
"2017-10-06 08:50:00",308850,0.373,27.15,9.86,79.77,115.3028,0,876.4698,0,-0.177,3.126,206,12.6,13.74,15.64324,0.135,50.17,57.22,33.34,35.03
"2017-10-06 09:00:00",308851,0.333,194.3,9.97,81.1,207.2715,0,876.4845,0,0.777,3.114,211,12.65,13.73,29.83887,0.144,50.11,57.22,33.33,35.03
"2017-10-06 09:10:00",308852,0.245,138.2,10.32,81.2,157.9857,0,876.4403,0,0.495,3.117,207,12.63,13.72,21.83914,0.138,50.11,57.22,33.33,35.03
"2017-10-06 09:20:00",308853,0.255,126.3,10.34,78.73,191.2202,0,876.5309,0,1.135,3.11,211,12.62,13.72,27.27335,0.143,50.11,57.22,33.33,35.03
"2017-10-06 09:30:00",308854,0.48,149.6,10.34,74.6,188.9053,0,876.493,0,0.855,3.113,210,12.61,13.74,26.76176,0.142,50.11,57.22,33.33,35.03
"2017-10-06 09:40:00",308855,0.228,127.1,10.64,74.24,171.8479,0,876.276,0,0.486,3.114,201,12.61,13.73,24.63204,0.143,50.11,57.22,33.33,35.03
"2017-10-06 09:50:00",308856,0.376,159.2,10.85,65.4,206.1436,0,876.0928,0,0.515,3.113,209,12.65,13.72,30.05867,0.146,50.11,57.22,33.33,35.03
"2017-10-06 10:00:00",308857,0.453,135.2,11.16,64.29,212.0665,0,876.0001,0,0.821,3.11,222,12.7,13.71,30.77868,0.145,50.11,57.22,33.33,35.03
"2017-10-06 10:10:00",308858,0.326,79.46,11.28,58.45,209.9599,0,875.84,0,3.593,3.08,249,12.69,13.71,30.92268,0.147,50.11,57.22,33.33,35.03
"2017-10-06 10:20:00",308859,0.749,90.2,11.06,68.74,155.3053,0,875.6946,0,2.496,3.095,217,12.74,13.71,21.47156,0.138,50.17,57.22,33.34,35.03
"2017-10-06 10:30:00",308860,0.339,325.1,11,72.99,210.9778,0,875.9432,0,2.513,3.092,218,12.72,13.71,30.85447,0.146,50.11,57.22,33.33,35.03
"2017-10-06 10:40:00",308861,0.094,100.4,11.32,71.41,199.4699,0,875.8464,0,3.516,3.081,212,12.77,13.71,28.00852,0.14,50.11,57.22,33.33,35.03
"2017-10-06 10:50:00",308862,0.087,339.1,11.37,66.64,126.2487,0,875.8828,0,3.845,3.078,212,12.8,13.71,15.88577,0.124,50.11,57.22,33.33,35.03
"2017-10-06 11:00:00",308863,0.096,138,11.03,71.87,57.79094,0,875.8873,0,2.573,3.094,203,12.8,13.71,4.649771,0.08,50.11,57.22,33.33,35.03
"2017-10-06 11:10:00",308864,0.098,151.3,10.59,76.05,53.04315,0,875.9838,0,2.586,3.096,221,12.8,13.69,4.615665,0.087,50.11,57.22,33.33,35.03
"2017-10-06 11:20:00",308865,0.205,92.1,10.28,78.61,48.51546,0,875.9593,0,3.043,3.092,265,12.8,13.67,4.619454,0.095,50.11,57.22,33.33,35.03
"2017-10-06 11:30:00",308866,0.469,173.1,10.09,78.66,87.78689,0,876.0367,0,0.389,3.119,199,12.78,13.67,10.97452,0.124,50.11,57.22,33.33,35.03
"2017-10-06 11:40:00",308867,0.475,161.2,10.08,74.27,60.46354,0,875.9171,0,0.031,3.123,214,12.84,13.67,7.283504,0.117,50.11,57.22,33.33,35.03
"2017-10-06 11:50:00",308868,0.875,111.3,9.89,71.41,40.08107,0,875.705,0,3.211,3.092,237,12.89,13.7,4.699035,0.115,50.11,57.22,33.33,35.03
"2017-10-06 12:00:00",308869,1.621,151.2,10.46,64.76,68.55992,0,875.7704,0,2.383,3.098,213,12.92,13.71,9.977871,0.146,50.11,57.16,33.33,35.02
"2017-10-06 12:10:00",308870,2.007,144.8,10.26,68.27,91.95692,0.5,875.6925,0,0.739,3.117,212,12.93,13.74,12.65329,0.137,50.11,57.16,33.33,35.02
"2017-10-06 12:20:00",308871,2.011,143.6,9.69,73.55,102.0892,0,875.128,0,3.05,3.095,227,12.92,13.74,14.17669,0.139,50.11,57.16,33.33,35.02
"2017-10-06 12:30:00",308872,1.638,150.1,9.65,72.85,105.8623,0,874.7004,0,3.787,3.088,221,12.91,13.68,16.6361,0.157,50.11,57.16,33.33,35.02
"2017-10-06 12:40:00",308873,0.319,167.5,9.51,79.31,154.5074,0.5,874.4224,0,0.319,3.124,231,12.89,13.66,22.45684,0.146,50.06,57.16,33.31,35.02
"2017-10-06 12:50:00",308874,0.36,210.7,9.49,81.1,100.0612,0,874.2097,0,1.307,3.115,233,12.89,13.69,13.98721,0.14,50.06,57.16,33.31,35.02
"2017-10-06 13:00:00",308875,0.574,23.15,8.88,90.4,71.91246,0,874.1654,0,-0.226,3.132,227,12.89,13.66,8.833428,0.123,50.11,57.16,33.33,35.02
"2017-10-06 13:10:00",308876,0.2,218.2,8.77,88.3,50.21728,0,874.3339,0,1.245,3.118,224,12.92,13.64,6.104956,0.121,50.06,57.16,33.31,35.02
"2017-10-06 13:20:00",308877,0.317,257.3,8.79,91.4,41.5785,0.5,874.2665,0,3.658,3.094,272,12.96,13.62,5.085568,0.122,50.06,57.16,33.31,35.02
"2017-10-06 13:30:00",308878,0.218,62.87,8.77,92.3,43.29997,0.5,874.0285,0,3.069,3.101,220,13.03,13.6,5.15378,0.119,50.11,57.16,33.33,35.02
"2017-10-06 13:40:00",308879,0.085,29.9,8.6,94.6,51.10552,0.5,873.7442,0,3.451,3.097,241,13.05,13.6,5.839688,0.114,50.06,57.16,33.31,35.02
"2017-10-06 13:50:00",308880,0.425,32.12,8.52,93.5,72.21509,0.5,873.5841,0,3.547,3.097,266,13.03,13.6,8.715953,0.12,50.06,57.16,33.31,35.02
"2017-10-06 14:00:00",308881,0.474,258.4,8.53,90.5,80.35864,0,873.4514,0,4.007,3.092,257,13.02,13.6,10.05745,0.125,50.06,57.16,33.31,35.02
"2017-10-06 14:10:00",308882,0.466,215.8,8.44,93.7,74.83273,0.5,873.2661,0,1.39,3.118,229,13.02,13.59,8.954701,0.12,50.06,57.16,33.31,35.02
"2017-10-06 14:20:00",308883,0.073,98.2,8.65,97.6,73.51694,0,873.3209,0,2.313,3.107,229,13.01,13.6,8.530371,0.116,50.06,57.16,33.31,35.02
"2017-10-06 14:30:00",308884,0,0,8.84,99.4,71.8659,0,873.3398,0,-2.386,3.153,202,12.99,13.64,8.284015,0.115,50.06,57.16,33.31,35.02
"2017-10-06 14:40:00",308885,0.142,166.2,8.87,99.3,47.61951,0.5,873.4746,0,1.626,3.114,218,12.98,13.68,5.206851,0.11,50.11,57.16,33.33,35.02
"2017-10-06 14:50:00",308886,0.057,162.7,8.77,100,36.61065,0.5,873.4746,0,0.026,3.13,222,12.98,13.71,4.126817,0.113,50.17,57.16,33.34,35.02
"2017-10-06 15:00:00",308887,0.151,152.7,8.7,100,31.10822,0.5,873.4725,0,0.635,3.124,207,12.98,13.7,3.478802,0.112,50.17,57.16,33.34,35.02
"2017-10-06 15:10:00",308888,0,0,8.73,100,24.46997,0.5,873.5505,0,-0.429,3.134,224,12.98,13.7,2.880054,0.118,50.22,57.16,33.35,35.02
"2017-10-06 15:20:00",308889,0.138,111.3,8.7,100,30.25142,0.5,873.7105,0,0.022,3.131,206,12.98,13.71,3.475012,0.115,50.44,57.16,33.41,35.02
"2017-10-06 15:30:00",308890,0.16,135.5,8.49,100,25.97527,0.5,873.5209,0,-2.901,3.161,225,12.98,13.71,2.891423,0.111,50.61,57.16,33.45,35.02
"2017-10-06 15:40:00",308891,0.065,30.6,8.45,100,16.09846,1,873.3461,0,-0.842,3.14,212,12.98,13.71,1.864456,0.116,50.99,57.16,33.54,35.02
"2017-10-06 15:50:00",308892,0.521,202.7,8.47,100,12.90313,0.5,873.0386,0,-1.249,3.144,218,13,13.7,1.921299,0.148,51.66,57.22,33.7,35.03
"2017-10-06 16:00:00",308893,0.483,304.1,8.49,100,11.49609,0.5,873.0407,0,-1.554,3.147,204,13.01,13.7,1.428658,0.125,52.16,57.27,33.83,35.05
"2017-10-06 16:10:00",308894,0.102,109.4,8.5,100,9.330508,0.5,873.0007,0,1.849,3.113,309,13.01,13.7,1.333921,0.143,52.49,57.33,33.91,35.06
"2017-10-06 16:20:00",308895,0.081,273.3,8.59,100,7.829229,0.5,873.3019,0,1.036,3.121,212,13.02,13.72,1.034558,0.133,52.72,57.45,33.96,35.09
"2017-10-06 16:30:00",308896,0.111,170.4,8.54,100,5.41205,1,873.4725,0,0.631,3.125,226,13.03,13.74,0.9057086,0.167,52.88,57.68,34,35.14
"2017-10-06 16:40:00",308897,0.007,192.7,8.62,100,4.952178,0.5,873.4746,0,-0.486,3.136,201,13.05,13.71,0.8223339,0.165,53.05,57.91,34.04,35.2
"2017-10-06 16:50:00",308898,0.458,136.7,8.62,100,2.825879,0,873.1292,0,0.253,3.128,206,12.99,13.7,0.4623248,0.167,53.11,58.32,34.06,35.29
"2017-10-06 17:00:00",308899,0.535,176.3,8.68,100,1.5053,0.5,872.8743,0,-0.327,3.133,226,12.91,13.7,0.466114,0.362,53.11,58.56,34.06,35.35
"2017-10-06 17:10:00",308900,0.31,270.9,9.14,100,1.721475,0.5,873.0576,0,1.053,3.117,301,12.89,13.71,0.6745422,0.357,53.05,58.79,34.04,35.4
"2017-10-06 17:20:00",308901,0.14,338,9.16,100,0.2436811,1,873.4051,0,-0.451,3.133,219,12.89,13.69,0.1440047,0.238,53.11,58.97,34.06,35.44
"2017-10-06 17:30:00",308902,0.148,329,8.83,100,0,0.5,873.8558,0,0.481,3.126,209,12.91,13.68,0,0,53.28,59.26,34.1,35.51
"2017-10-06 17:40:00",308903,0.081,47.29,8.63,100,0,1,873.9633,0,2.735,3.105,274,12.94,13.63,0,0,53.78,59.67,34.22,35.6
"2017-10-06 17:50:00",308904,0.409,127.4,8.58,100,0,1.5,873.7189,0,-0.056,3.132,198,12.92,13.59,0.01515819,0,54.92,60.27,34.49,35.74
"2017-10-06 18:00:00",308905,0.867,126.6,9.12,100,0.4166104,0.5,873.5757,0,-36.92,3.487,256,12.8,13.58,0.7124344,1.085,55.09,60.8,34.53,35.86
"2017-10-06 18:10:00",308906,0.455,185.8,9.27,100,0.2004446,1,873.5715,0,3.417,3.094,378,12.8,13.58,0.16674,0.114,55.15,61.16,34.55,35.94
"2017-10-06 18:20:00",308907,0.254,161.3,9.46,100,0.2083052,1,873.4725,0,2.865,3.098,372,12.83,13.58,0.2538995,0.283,55.2,61.46,34.56,36.01
"2017-10-06 18:30:00",308908,0.269,167.2,9.75,100,0.4008893,0.5,873.4725,0,-2.539,3.148,194,12.82,13.58,0.5040094,0.945,55.2,61.64,34.56,36.05
"2017-10-06 18:40:00",308909,0.312,139.2,10.22,100,0.396959,0.5,873.4683,0,-1.397,3.132,197,12.78,13.58,0.7768566,1.16,55.15,61.82,34.55,36.09
"2017-10-06 18:50:00",308910,0.346,144,11.05,100,0.3930287,0,873.2429,0,3.023,3.087,468,12.77,13.58,0.9587548,1.679,55.15,62,34.55,36.13
"2017-10-06 19:00:00",308911,0.258,135.1,11.45,100,0,0.5,873.1692,0,-2.984,3.143,260,12.72,13.58,0.5760108,0,54.92,62.06,34.49,36.15
"2017-10-06 19:10:00",308912,0.201,115,11.71,100,0,0,872.967,0,-2.119,3.135,218,12.72,13.58,0.4547453,0,54.8,62.06,34.46,36.15
"2017-10-06 19:20:00",308913,0.988,40.37,11.93,100,0,0.5,872.967,0,-0.979,3.121,208,12.7,13.59,0.4547453,0,54.69,62.12,34.44,36.16
"2017-10-06 19:30:00",308914,0.553,63.27,12.53,96.3,0,0,872.967,0,0.866,3.098,269,12.67,13.59,1.239181,0,54.63,62.18,34.42,36.17
"2017-10-06 19:40:00",308915,0.456,117.2,12.82,87.5,0,0,872.9501,0,-2.834,3.137,204,12.64,13.59,1.849298,0,54.52,62.12,34.4,36.16
"2017-10-06 19:50:00",308916,0.237,120.1,12.45,88.9,0,0,872.7943,0,0.288,3.106,255,12.62,13.58,1.273287,0,54.52,62.06,34.4,36.15
"2017-10-06 20:00:00",308917,0.503,70.31,12.56,86.6,0,0.5,872.8196,0,-1.943,3.129,194,12.63,13.58,1.527187,0,54.46,62,34.38,36.13
"2017-10-06 20:10:00",308918,0.326,146.2,12.73,83.9,0,0,872.4257,0,0.42,3.104,211,12.63,13.58,2.372255,0,54.46,62,34.38,36.13
"2017-10-06 20:20:00",308919,0.306,73.29,12.66,85.5,0,0.5,872.3457,0,-2.868,3.139,218,12.63,13.58,1.781086,0,54.41,62,34.37,36.13
"2017-10-06 20:30:00",308920,0.158,77.98,11.69,92.9,0,0,872.2214,0,2.381,3.09,249,12.66,13.59,0.2690577,0,54.35,61.94,34.36,36.12
"2017-10-06 20:40:00",308921,0.401,294.6,12.08,89,0,0.5,872.5963,0,-0.184,3.117,214,12.64,13.61,1.470343,0,54.35,61.94,34.36,36.12
"2017-10-06 20:50:00",308922,0.295,348,10.59,94,0,0.5,872.7395,0,1.815,3.105,208,12.61,13.62,0.003789545,0,54.35,61.88,34.36,36.11
"2017-10-06 21:00:00",308923,0.658,128.1,10.32,99.5,0.07467545,1,872.3246,0,2.808,3.091,289,12.59,13.63,0.2122145,0.378,54.41,61.88,34.37,36.11
"2017-10-06 21:10:00",308924,0.092,138.5,10.64,100,0.09432688,0.5,872.0866,0,-2.426,3.144,181,12.58,13.63,0.2197936,0.287,54.52,61.88,34.4,36.11
"2017-10-06 21:20:00",308925,0.41,210.4,10.91,100,0.04716344,0.5,871.8086,0,-0.29,3.119,245,12.58,13.62,0.5608526,0.386,54.92,61.88,34.49,36.11
"2017-10-06 21:30:00",308926,0.559,252.3,11.51,99.4,0,0,871.8697,0,-0.387,3.119,229,12.58,13.6,1.117916,0,54.97,62.12,34.51,36.16
"2017-10-06 21:40:00",308927,0.179,340.4,11.4,99.3,0,0.5,872.3688,0,0.881,3.108,313,12.58,13.58,0.5040094,0,54.75,62.54,34.45,36.25
"2017-10-06 21:50:00",308928,0.441,128.1,10.97,100,0,0.5,871.8275,0,1.583,3.103,234,12.56,13.57,0,0,54.63,62.66,34.42,36.28
"2017-10-06 22:00:00",308929,0.286,174,10.97,100,0,0.5,871.5706,0,-35.28,3.464,230,12.54,13.53,0.1894772,0,54.69,62.78,34.44,36.31
"2017-10-06 22:10:00",308930,0.516,121.7,11.23,100,0.1179086,0,871.2209,0,-0.328,3.117,210,12.55,13.51,0.6821181,0.771,54.69,62.84,34.44,36.32
"2017-10-06 22:20:00",308931,0.456,130,11.69,99.2,0,0,871.1262,0,-1.506,3.129,199,12.54,13.5,0.9511757,0,54.63,62.96,34.42,36.35
"2017-10-06 22:30:00",308932,0.414,336.8,11.42,98.9,0,0,870.787,0,-1.865,3.133,187,12.54,13.5,0.4054812,0,54.58,62.9,34.41,36.34
"2017-10-06 22:40:00",308933,0.639,312.9,11.46,99.9,0,0,870.4901,0,-1.617,3.132,205,12.54,13.5,0.5343258,0,54.52,62.96,34.4,36.35
"2017-10-06 22:50:00",308934,0.212,316.4,10.97,99.9,0,0,870.6923,0,-2.194,3.141,196,12.54,13.5,0,0,54.46,62.84,34.38,36.32
"2017-10-06 23:00:00",308935,0.234,25.74,10.47,100,0,0,870.5596,0,-1.591,3.137,203,12.54,13.51,0,0,54.46,62.72,34.38,36.3
"2017-10-06 23:10:00",308936,0.434,138.5,10.32,100,0,0,870.4332,0,-0.906,3.131,225,12.55,13.54,0,0,54.46,62.54,34.38,36.25
"2017-10-06 23:20:00",308937,0.181,263.6,10.38,100,0,0,870.4227,0,-1.028,3.131,208,12.57,13.54,0.216004,0,54.41,62.42,34.37,36.23
"2017-10-06 23:30:00",308938,0.402,292,10.51,100,0,0,870.3237,0,-0.795,3.128,206,12.57,13.54,0.4282185,0,54.35,62.12,34.36,36.16
"2017-10-06 23:40:00",308939,0.167,281,10.56,100,0,0,870.4354,0,-0.183,3.122,211,12.56,13.54,0.1477922,0,54.29,62,34.34,36.13
"2017-10-06 23:50:00",308940,0.209,76.93,10.43,100,0,0,870.2437,0,0.039,3.121,215,12.57,13.53,0.02652681,0,54.29,61.94,34.34,36.12
